Starlink 11622

operational
NORAD ID: 63187 Int'l Des: 2025-048 Owner: SPXS Country: US Constellation: starlink
LEOCIRCULAR

关于 Starlink 11622

正在加载描述...

实时位置

正在加载3D地球...

即将过境

高度历史

Altitude vs Time

uPlot chart will show altitude changes over time

两行轨道根数

1 63187U 25048E 26095.56509388 .00256768 00000-0 19408-2 0 9998
2 63187 42.9986 158.2875 0001236 260.8023 99.2705 15.70871663 62749
Epoch: Apr 5, 2026 • Age: 5 hours

当前状态

高度 357.6 km
速度 7.70 km/s
星下点 -11.15°S, 129.6°W
发射日期 Mar 13, 2025
运行时间 1 years
类型 internet

技术详情

分类 Payload
质量 960.00 kg
干质量 910.00 kg
总质量 960.00 kg
长度 0.30 m
直径 4.10 m
跨度 29.00 m
形状 Box + pan
制造商 SPXS
平台类型 Starlink V2MD
阶段状态 In Orbit
所有者/国家 SPXS/US

大型星座

Loading constellations...